Location: Newark
(45.2500°N, 7.5833°E)
Time: 21:04:44
(UTC+00:00)

Vanguard 3 - Pass Details

Date: 30 January 2020
Orbit: 508 x 3263 km, 33.3° (Epoch: 22 February)

Event Time Altitude Azimuth Distance (km) Brightness Sun altitude
Rises 23:02:23 0° 275° (W) 6,817 12.0 -61.1°
Enters shadow 23:10:27 - 254° (WSW) 5,406 11.3 -61.5°
Reaches altitude 10° 23:12:56 10° 246° (WSW) 5,057 - -61.6°
Maximum altitude 23:15:26 11° 235° (SW) 4,780 - -61.8°
Drops below altitude 10° 23:17:45 10° 225° (SW) 4,609 - -61.8°
Sets 23:25:11 0° 191° (S) 4,793 - -62.1°
